Regional Weather Roundup
Issued by NWS Charleston, SC

Current Version | Previous Version | Text Only | Print | Product List | Glossary Off
Versions: 1 2 3 4 5 6 7 8 9 10 11 12 13 14 15 16 17 18 19 20 21 22 23 24 25 26 27 28 29 30 31 32 33 34 35 36 37 38 39 40 41 42 43 44 45 46 47 48 49 50

000
ASUS42 KCHS 171612
RWRCHS

Regional Weather Roundup
National Weather Service Charleston SC
1100 AM EST SAT FEB 17 2018

NOTE: "fair" indicates few or no clouds below 12,000 feet with no
significant weather and/or obstructions to visibility.

Not all stations are quality controlled. Use data with caution,
especially dewpoint observations.

SCZ027-030-031-034>040-042>050-171700-
...Southeast South Carolina...

CITY           SKY/WX    TMP DP  RH WIND       PRES   REMARKS
N Charleston   CLOUDY    64  57  78 E13       30.20S
Waterfront Prk   N/A     60  57  89 NE15      30.05F
Mount Pleasant CLOUDY    61  55  82 NE7       30.20F HAZE
Johns Island   CLOUDY    63  59  88 NE10      30.20S HAZE
Pinopolis        N/A     61  55  82 E6        30.12F
Moncks Corner  CLOUDY    61  54  77 E12       30.20F
Summerville    CLOUDY    64  57  77 SE5       30.21S
Beaufort MCAS  CLOUDY    69  61  75 E13       30.19S
Beaufort Arpt  CLOUDY    64  59  82 NE10      30.19S HAZE
Hilton Head Is SUNNY     64  57  77 NE9G16    30.20S
Walterboro     PTSUNNY   66  57  72 E12       30.20R
Allendale      FAIR      70  55  60 SE9       30.16F

...Southern Midlands and Pee Dee...

CITY           SKY/WX    TMP DP  RH WIND       PRES   REMARKS
Georgetown     CLOUDY    55  50  82 E14G22    30.24F
Kingstree      CLOUDY    59  52  77 E13       30.22R
Orangeburg     CLOUDY    66  51  58 SE8       30.18F
Barnwell         N/A     70  55  60 SE8G15    30.17S
Aiken          CLOUDY    63  54  72 SE8       30.19F
Manning        CLOUDY    61   1   9 MISG      30.21S
Columbia       CLOUDY    65  49  56 E12       30.17F
Sumter         CLOUDY    63  45  52 SE13      30.18S
Florence       CLOUDY    59  51  75 E12       30.21F
Myrtle Beach   CLOUDY    55  46  71 E17       30.24F
N Myrtle Beach CLOUDY    57  46  66 E10       30.22F

$$

GAZ063-065-086>088-099>101-113>116-118-119-134>141-150-171700-
...Southeast Georgia...

CITY           SKY/WX    TMP DP  RH WIND       PRES   REMARKS
Savannah Arpt  FAIR      72  61  68 E12       30.18S
Hunter AAF     FAIR      70  69  94 E8        30.16S
Fort Stewart   CLOUDY    66  66 100 E7        30.17R
Statesboro     CLOUDY    73  57  58 S8        30.16F
Sylvania       PTSUNNY   70  61  73 S6        30.17F
Claxton        FAIR      76  63  64 E10       30.17S

...CSRA, Central and far Southeast Georgia...

CITY           SKY/WX    TMP DP  RH WIND       PRES   REMARKS
Thomson        CLOUDY    70  60  70 SW8       30.19S
Augusta-Bush   CLOUDY    72  58  61 SE10      30.13F
Augusta-Daniel CLOUDY    70  58  65 SE15      30.15F
Swainsboro     CLOUDY    70  63  78 SE3       30.17S
Vidalia        FAIR      75  63  64 S7        30.17S
Eastman        FAIR      76  53  44 S10       30.18S
Hazlehurst     FAIR      69  62  80 S5        30.17S
Alma           CLOUDY    67  62  84 S6        30.18S
Waycross       CLOUDY    67  65  90 S7        30.19S
Jesup          PTSUNNY   68  63  83 CALM      30.19S
Baxley         CLOUDY    63  63 100 S5        30.18S
Brunswick      FAIR      70  63  78 CALM      30.19F
Saint Simons   FAIR      67  64  90 VRB5      30.18F

$$

SCZ027-028-034-036>038-045-046-048>050-GAZ119-141-171700-
...Lake and Supplemental Coastal Observations...

STATION/POSITION TIME  TEMP    WIND        PRES    WAVE   SWELL
                       AIR SEA DIR/SP/G            HT/PER HT/PER/DIR
                 (UTC) (F)     (DEG/KT/KT) (MB)    (FT/S) (FT/S/D)
Winyah Bay       1445   54      60/ 19     1024.0
Lake Murray      1520   60      70/  6/ 12 1021.3F
ACE Basin NERRS  1445   66      50/  5     1022.0
Fort Pulaski     1542   60 58   60/  9/ 11 1022.5R
Sapelo Island    1500   63     250/  2     1022.0

$$

ANZ835-935-AMZ111-154-330-350-352-354-370-450-454-472-171700-
...C-MAN and Buoy Observations...

STATION/POSITION TIME  TEMP    WIND        PRES    WAVE   SWELL
                       AIR SEA DIR/SP/G            HT/PER HT/PER/DIR
                 (UTC) (F)     (DEG/KT/KT) (MB)    (FT/S) (FT/S/D)
Buoy 41004       1550   68 69   90/ 14/ 17 1021.9R   6/ 6   2/120/11
Buoy 41008       1550   58 57  220/  4/  4 1021.9R   2/11   2/ 90/11
Folly Beach CMAN 1600   58      50/ 17/ 20 1022.9F
Capers Nearshore 1508   54 56   50/ 14/ 19 1022.2S
Fripp Nearshore  1508   57 55   60/  8/ 12 1021.6F


STATION/POSITION TIME  TEMP    WIND        PRES    WAVE   SWELL
                       AIR SEA DIR/SP/G            HT/PER HT/PER/DIR
                 (UTC) (F)     (DEG/KT/KT) (MB)    (FT/S) (FT/S/D)
5E St. Marys GA  1600      59                N/A     2/11   2/120/11
Frying Pan Buoy  1550   62 64   60/ 17/ 21 1023.0F   7/ 7   2/120/10
Buoy 41025       1600   58      30/ 19/ 25   N/A
Cape Lookout NC  1500           30/ 21/ 25 1025.7F
Buoy 41002       1550   72 73  100/ 14/ 16 1022.5R   5/ 7   3/250/ 7
Buoy 41010       NOT AVBL
St Augustine FL  1600   63 57  110/  8/  9 1023.2R


$$




USA.gov is the U.S. government's official web portal to all federal, state and local government web resources and services.